User: anonymous   Login
Location: Unspecified
(0.0000°N, 0.0000°E)
Time: 23:59:57
(UTC+00:00)
Language:

STARLINK-3255 - Orbit

View from above orbital plane
View from above orbital plane
View from above satellite
View from above satellite

Ground track
Ground track

The orbit is defined by the following mean orbital elements,

1 50201U          26145.38643758 +.00000000 +00000-0 +61421-3 0 00000
2 50201  53.1825 111.4149 0004381  50.4762 309.6660 16.09558466    05
Epoch (UTC): 25 May 2026 09:16:28
Eccentricity: 0.0004381
inclination: 53.1825°
perigee height: 245 km
apogee height: 251 km
right ascension of ascending node: 111.4149°
argument of perigee: 50.4762°
revolutions per day: 16.09558466
mean anomaly at epoch: 309.6660°

The dashed part of the orbit path shows where the satellite is in the earth's shadow,  

DLR